RH
9 8 8 8 9 9 12 16 19 20 21 23 23 23 22 22 23 24 24 22 20 18 18 17 16 16 15 15 14 13 12 12 11 11 11 11 11 10 9 9 9 8 8 8 9 10 12 12 12 11 10 10 10 11 12 11 11 10 11 12 11 10 11 9 9 10 12 14 13 11 14 13 15 23 29 28 25 25 30 34 37 39 38 40 42 42 40 39
7 7 7 7 7 8 9 12 16 19 21 23 24 24 23 23 24 25 26 26 23 21 19 19 18 17 16 16 15 14 13 12 12 11 12 13 12 11 10 9 9 9 9 10 11 11 11 11 11 11 10 10 10 12 12 12 12 10 11 12 11 11 11 10 10 10 12 13 12 11 13 14 14 21 28 31 30 27 30 33 35 35 36 38 39 40 41 39
7 7 7 6 7 7 8 9 12 16 19 22 24 25 25 25 25 26 27 28 27 25 23 21 19 18 17 16 15 14 13 12 13 14 15 14 13 12 11 10 10 9 10 11 11 11 10 11 10 10 10 10 11 11 12 13 12 11 12 14 11 11 11 10 9 9 11 12 12 11 12 14 14 17 21 29 34 31 30 31 33 34 34 36 37 38 40 38
8 7 7 7 7 7 8 8 9 12 16 20 22 25 26 26 26 26 28 28 27 27 25 24 22 19 18 16 15 14 13 15 18 17 16 16 15 13 11 10 10 10 11 12 12 11 11 10 10 10 9 11 12 11 12 13 12 12 13 12 12 12 11 10 10 10 10 12 12 12 12 13 14 15 16 21 31 36 37 35 36 39 37 37 37 36 38 38
9 8 8 7 7 7 8 8 9 10 12 16 19 22 25 26 27 26 27 28 28 27 27 26 25 22 20 17 16 15 15 19 22 19 18 18 17 15 13 12 11 12 13 13 12 11 11 11 10 10 9 11 13 11 12 13 13 14 12 11 13 13 11 11 11 10 11 11 13 13 13 13 13 15 15 18 27 33 36 35 35 36 34 35 36 35 38 39
10 10 9 8 7 8 8 8 9 9 10 12 15 20 23 25 26 26 27 28 28 28 28 27 26 25 24 20 17 17 17 20 22 21 20 20 19 18 15 14 13 14 15 13 12 12 11 11 11 10 9 11 13 11 13 14 12 13 12 12 12 11 11 11 11 10 10 11 12 14 13 13 13 15 14 18 25 26 26 26 26 28 30 34 36 36 38 41
11 11 10 10 9 8 8 9 9 10 10 10 12 16 20 22 24 26 27 27 28 29 29 28 27 26 26 23 21 21 21 20 20 20 20 20 21 20 18 16 16 17 17 15 12 11 11 11 10 10 10 12 14 12 14 14 11 12 13 13 12 10 10 11 11 10 11 11 12 13 13 14 13 14 15 16 20 21 20 19 21 26 30 34 37 36 38 41
11 11 11 12 11 10 9 9 10 10 11 11 11 13 16 20 22 25 26 27 27 28 28 28 27 27 28 26 25 24 22 20 19 19 19 20 21 20 20 19 18 19 18 15 13 12 11 11 10 11 11 12 13 13 15 14 12 11 12 15 13 11 10 10 10 10 10 11 12 13 14 15 14 14 15 14 18 21 21 21 24 28 32 35 37 36 37 40
11 12 12 12 13 12 11 10 10 10 11 11 11 12 14 16 19 22 25 27 27 28 28 27 27 28 28 27 27 25 20 20 20 20 20 20 20 19 20 20 19 19 17 16 14 12 12 11 11 11 12 14 13 13 14 13 13 11 12 15 14 12 12 11 10 10 10 11 12 12 14 15 15 15 14 16 21 24 24 25 27 31 34 36 37 37 38 41
13 13 13 13 14 14 13 12 11 12 11 11 12 12 12 14 16 18 22 25 27 27 27 28 27 28 29 28 29 25 20 21 22 22 22 20 20 19 18 18 18 17 16 15 14 13 12 11 12 11 12 13 13 14 14 12 13 13 13 14 14 13 13 11 10 11 11 11 11 12 14 14 15 15 15 20 25 25 26 27 29 31 34 37 36 37 39 43
13 13 14 14 14 15 14 14 13 13 13 12 12 12 12 13 14 16 19 22 26 27 27 27 27 28 29 29 29 24 21 22 23 23 23 21 19 18 18 18 17 17 16 15 14 13 12 12 13 11 13 14 13 13 14 12 12 13 12 13 12 12 13 11 11 11 11 11 12 12 13 14 15 14 17 23 27 26 26 28 29 30 32 34 33 35 39 42
13 13 13 14 14 14 15 15 15 15 15 13 13 12 13 13 13 14 16 19 24 26 27 27 28 29 30 31 30 25 21 21 23 23 22 21 19 18 19 19 19 18 17 15 14 12 12 13 13 13 15 14 13 13 13 11 12 12 11 12 12 12 12 11 11 12 12 12 12 13 12 12 14 14 18 24 27 27 27 27 28 29 30 32 31 35 40 43
13 13 12 12 12 13 15 16 16 16 16 15 15 13 13 13 13 13 14 16 20 25 25 26 27 28 30 32 29 25 22 21 22 23 23 22 21 20 19 18 19 19 18 15 13 13 12 13 14 15 16 15 14 14 13 12 11 11 11 12 13 13 13 12 12 12 12 12 12 13 13 13 13 12 18 24 25 26 26 26 28 29 30 30 31 36 42 45
12 12 12 12 11 12 14 15 16 16 16 16 16 15 14 14 14 14 14 14 18 22 24 24 25 28 32 32 28 25 24 21 21 22 24 25 24 22 18 15 16 17 16 15 13 12 11 13 14 14 15 15 16 15 13 13 11 11 12 12 12 13 14 12 13 12 11 13 12 13 13 14 13 14 19 24 24 24 24 25 27 29 29 30 31 37 43 45
10 11 11 12 12 12 13 14 16 16 16 16 16 16 16 16 16 16 16 15 18 22 23 24 26 29 34 32 28 26 24 21 21 23 26 26 26 23 17 14 14 15 15 14 13 12 11 14 16 16 15 15 15 14 13 13 12 12 12 12 11 13 15 14 12 12 12 13 12 13 13 14 14 16 21 23 23 22 22 24 27 29 30 30 31 37 43 45
12 11 10 11 12 12 12 13 15 16 16 15 15 17 18 18 18 17 18 18 20 23 27 30 31 33 35 31 28 27 23 22 23 24 24 25 25 21 16 13 14 14 15 14 13 12 12 16 17 17 17 15 14 14 14 14 13 12 11 14 14 12 14 14 13 12 13 14 13 13 13 14 15 17 20 22 22 22 20 23 27 29 30 29 32 38 44 47
14 13 11 11 11 12 12 13 14 15 16 15 14 16 18 18 18 18 19 20 22 26 31 36 37 36 33 28 28 27 24 24 25 24 24 23 21 17 13 13 14 14 15 15 14 14 15 17 17 17 16 15 14 14 17 18 17 15 11 15 17 14 13 15 15 13 13 14 14 14 13 14 16 17 19 22 22 21 20 22 26 29 30 30 34 39 44 47
15 15 14 12 11 11 12 13 14 15 17 17 15 15 16 18 18 20 21 23 27 31 36 40 39 36 32 27 28 29 25 25 25 25 25 22 18 14 12 13 14 14 14 16 16 17 18 18 17 16 16 16 15 14 18 19 18 18 14 15 17 14 13 15 18 17 15 15 15 15 14 14 16 17 20 22 22 21 21 24 27 29 30 32 36 39 43 46
14 14 15 14 14 12 11 13 13 15 17 18 17 15 15 18 21 23 24 27 30 34 37 41 38 34 32 29 27 27 25 25 25 26 26 22 16 14 12 13 13 14 16 17 19 18 19 20 18 17 16 15 14 14 18 19 18 19 17 16 17 16 14 15 21 21 16 16 16 17 16 15 16 19 22 23 24 23 23 27 28 28 29 32 37 40 41 44
13 13 13 14 14 14 12 12 12 14 15 18 20 18 19 21 24 28 28 27 28 28 30 32 31 30 32 30 26 26 25 24 25 26 25 20 15 14 13 13 13 16 19 19 20 20 19 19 17 16 18 17 15 16 19 19 18 17 17 16 17 18 17 18 21 20 17 18 19 19 19 17 17 21 23 23 25 23 24 29 28 27 29 32 38 41 39 42
12 12 12 12 13 14 14 13 12 13 14 17 20 21 24 22 21 27 27 24 24 26 27 28 27 27 29 30 26 25 26 25 25 26 24 20 16 16 15 14 16 19 21 21 21 21 19 19 18 17 20 19 17 17 17 17 17 17 17 17 18 17 18 21 20 18 18 20 22 21 18 18 18 22 24 24 25 23 24 29 30 27 29 34 39 40 38 41
11 11 11 11 12 12 13 14 13 13 13 15 19 23 26 25 23 24 24 22 22 26 29 28 27 26 28 30 27 26 27 26 26 24 24 21 17 17 18 17 19 20 21 22 22 21 20 19 18 18 19 18 17 17 16 16 18 18 17 19 21 18 19 22 21 19 21 22 24 20 17 19 19 21 24 24 24 24 24 28 30 30 30 35 40 39 37 40
12 12 11 11 11 11 11 13 14 14 13 15 18 21 26 28 26 24 25 24 21 24 26 25 26 26 27 30 28 26 26 25 25 25 24 23 19 19 21 19 20 21 21 22 21 20 22 20 19 19 17 16 17 17 16 17 17 17 18 21 21 19 19 22 23 21 22 24 24 20 18 22 21 20 23 24 24 26 27 28 30 31 32 38 40 38 37 38
13 13 13 13 12 11 11 11 12 13 14 16 17 18 23 28 28 29 30 26 21 22 23 22 23 25 25 27 26 24 24 23 26 26 26 25 20 19 21 20 20 21 21 22 19 19 25 23 19 18 17 17 18 18 17 17 17 16 19 21 21 21 19 23 27 24 23 23 21 18 20 23 23 22 23 25 26 28 29 30 30 33 37 41 40 37 39 40
15 15 14 14 14 13 11 10 11 13 15 16 16 18 23 26 28 33 34 31 27 23 24 24 24 24 24 25 24 22 22 23 25 28 28 26 21 18 21 21 21 21 20 20 19 19 23 22 18 17 17 17 19 19 17 17 18 19 20 19 22 24 21 23 26 24 24 24 20 19 22 24 23 24 26 26 28 31 32 33 32 35 41 43 42 41 44 45
19 18 16 15 14 14 14 14 13 13 13 13 15 20 24 25 28 34 37 38 34 26 27 31 28 25 23 24 24 22 22 24 25 29 29 26 21 20 21 21 20 21 20 20 19 18 20 20 18 18 18 18 19 18 17 17 20 23 22 19 21 23 22 24 25 23 25 28 24 20 25 29 24 25 31 29 30 34 37 36 34 39 45 45 45 47 48 47
21 21 20 18 16 14 15 16 15 12 11 15 17 20 24 25 28 33 37 38 33 28 30 33 31 29 25 24 23 22 23 25 26 29 28 25 22 20 21 21 20 20 21 20 20 18 19 19 18 19 21 21 20 19 18 17 21 27 27 23 22 21 23 25 24 23 27 31 28 20 23 30 28 28 31 30 31 37 39 38 38 42 47 47 48 50 49 46
20 20 21 21 19 17 15 15 14 12 12 14 14 18 23 25 29 35 37 35 31 32 35 33 30 30 28 26 24 23 26 27 28 29 27 24 24 23 22 22 20 21 21 20 22 22 19 19 21 21 23 24 23 23 21 17 22 29 28 24 23 22 23 24 23 24 26 29 29 25 22 26 31 31 28 30 36 40 40 39 41 45 48 49 48 50 50 47
19 19 20 20 20 20 18 15 14 14 13 11 12 17 21 25 30 33 34 31 29 35 39 38 35 32 30 28 25 25 28 29 29 30 27 24 24 24 24 23 21 22 21 19 26 28 22 21 24 25 26 27 25 24 21 19 25 30 27 23 23 23 23 24 24 25 27 26 28 32 27 25 34 34 28 32 38 41 42 40 41 44 46 48 49 51 51 49
17 17 19 19 19 20 20 19 16 14 14 13 15 19 21 28 33 33 35 31 28 33 37 40 42 37 34 31 27 28 30 30 30 31 29 26 25 24 24 25 22 22 21 20 27 30 24 24 26 26 27 26 25 23 21 21 25 27 26 23 24 23 23 24 25 27 30 28 28 33 32 27 33 36 32 35 37 38 39 37 37 41 43 44 47 50 51 51
12 13 15 16 17 19 20 21 19 17 15 14 16 19 23 31 35 38 38 29 26 34 35 39 42 40 40 38 32 31 31 32 32 33 32 29 28 27 26 26 24 23 23 23 26 27 26 27 27 26 27 26 24 24 24 22 22 25 25 24 24 25 24 24 28 31 30 31 31 32 32 27 30 37 38 39 38 36 36 36 38 40 39 40 44 48 50 52
9 9 10 11 13 15 18 22 22 21 19 15 16 19 26 34 35 35 32 24 26 34 34 37 41 40 43 43 39 35 33 35 34 34 36 34 32 30 27 28 27 24 25 25 26 28 28 28 27 27 27 26 25 27 27 25 24 26 26 26 25 28 28 25 29 32 28 31 35 34 33 28 29 39 41 39 38 38 38 39 40 40 41 42 43 46 51 54
6 6 6 8 10 12 15 18 22 22 21 17 17 20 26 34 34 30 27 24 29 33 32 35 39 40 42 43 44 41 37 39 37 35 38 38 38 34 30 30 28 26 28 27 29 31 31 29 29 28 28 27 27 28 29 29 28 27 27 27 27 29 33 27 26 30 28 32 37 35 34 30 30 37 39 38 41 42 41 42 42 43 44 45 44 44 50 55
5 5 5 7 10 13 14 15 17 22 24 21 20 26 32 34 30 29 29 26 28 33 34 34 36 38 42 43 44 43 41 42 41 40 41 40 40 38 34 33 29 28 31 32 32 32 32 32 31 29 29 28 27 27 29 31 31 29 27 27 27 29 34 31 27 29 29 32 36 35 33 31 33 39 38 38 42 42 44 44 45 45 45 45 45 44 48 53
5 5 6 9 13 15 15 14 13 17 24 25 24 31 38 33 26 27 29 26 26 32 34 34 35 37 40 43 44 42 41 43 44 45 46 44 42 40 38 37 34 32 34 36 35 32 31 33 32 31 30 29 28 28 29 31 34 34 28 26 28 29 31 32 33 34 32 32 36 35 32 31 35 40 39 40 43 43 44 45 45 46 46 45 46 45 48 52
6 7 9 13 15 15 16 16 12 11 21 28 30 35 36 28 21 20 25 26 27 29 30 33 35 36 38 41 44 43 41 43 44 46 50 49 46 44 42 40 39 37 37 38 38 36 34 34 33 32 32 30 29 29 29 29 34 38 34 29 28 28 30 32 33 34 31 31 34 34 34 33 33 36 38 40 44 45 45 46 46 47 47 47 47 47 49 51
8 10 14 15 15 14 15 15 13 9 15 26 33 36 33 27 21 18 21 25 27 27 27 28 31 35 37 40 44 45 43 44 43 44 51 53 51 50 46 44 43 42 42 42 44 43 39 38 37 34 32 30 30 30 30 29 32 37 39 35 32 30 31 31 32 34 31 30 32 34 35 35 33 37 38 39 44 48 48 48 49 49 48 48 48 48 50 52
11 13 17 16 14 15 15 14 14 11 11 20 31 36 35 31 25 18 19 23 27 28 27 26 29 31 34 39 46 47 45 47 46 43 46 50 53 53 50 48 46 45 44 44 47 49 45 43 44 39 34 31 30 31 32 32 30 32 35 36 35 35 34 31 32 34 33 32 32 33 34 33 34 39 43 44 47 49 49 50 51 51 50 50 49 50 51 53
14 15 17 17 14 14 14 14 16 13 12 19 27 32 35 35 28 20 19 21 25 29 29 29 29 27 29 34 43 48 47 50 50 46 46 49 52 54 51 50 49 48 47 44 46 50 48 47 48 45 39 34 32 32 33 35 33 31 31 32 34 36 36 37 36 34 33 34 34 35 34 31 33 41 46 49 50 48 47 49 49 49 49 49 47 47 49 50
15 15 18 18 15 14 15 19 19 15 14 18 22 26 31 36 33 24 18 19 24 27 29 32 30 27 28 29 34 42 47 51 51 49 50 51 52 53 50 50 52 50 49 47 45 47 49 49 48 47 43 39 37 36 34 36 37 34 33 33 32 33 33 36 38 36 35 35 37 38 34 33 40 44 44 46 46 44 44 45 46 45 45 45 44 45 49 50
16 17 19 20 17 17 21 23 22 17 16 17 20 25 31 36 38 32 22 18 22 26 29 31 32 32 31 28 31 38 42 47 50 51 53 53 53 55 53 51 52 51 51 51 49 48 49 49 49 48 46 42 41 39 36 37 38 37 38 36 35 34 33 34 35 34 34 34 37 38 34 40 48 45 40 41 42 42 44 46 47 47 46 47 48 50 53 55
18 18 21 22 21 22 25 28 27 23 20 20 21 25 29 33 36 37 30 22 20 24 25 26 29 32 32 30 32 36 38 42 48 51 53 53 54 58 57 55 53 51 52 53 53 54 53 51 51 51 48 44 43 41 39 38 37 37 39 39 38 38 37 36 35 36 36 33 34 34 36 46 52 46 43 45 44 45 48 49 49 49 49 50 50 51 54 57
18 20 24 24 24 26 28 31 31 27 25 26 25 25 27 31 35 37 33 26 22 23 23 23 25 29 32 31 30 33 36 39 44 47 51 52 54 56 58 59 57 54 54 54 55 58 58 55 54 52 49 46 43 42 41 40 39 38 38 38 39 39 40 40 39 41 40 38 36 34 37 48 51 46 46 48 47 48 49 51 51 50 50 50 51 54 56 59
21 25 27 27 29 33 35 37 36 32 32 34 33 31 31 32 36 40 37 29 25 24 22 24 24 24 28 29 27 29 35 39 42 44 48 52 52 51 53 56 56 57 59 60 59 59 59 58 57 55 53 50 48 45 43 41 41 42 41 40 39 38 39 39 39 39 40 41 39 35 40 52 51 46 48 49 48 48 49 51 53 54 54 53 55 60 62 64
26 31 31 31 34 37 41 42 39 37 38 41 42 42 42 37 33 38 41 32 23 22 23 24 23 20 22 25 26 28 32 39 44 44 46 49 48 47 50 53 53 55 58 60 60 59 60 61 60 59 57 55 52 49 47 45 42 42 42 41 40 39 40 39 37 36 37 39 39 36 43 56 55 49 51 51 48 49 51 54 55 58 59 58 58 58 58 61
27 31 31 34 43 44 42 42 42 39 40 43 45 45 46 44 35 32 38 35 24 20 22 22 21 20 20 24 28 30 29 36 43 46 46 48 47 45 48 52 55 55 55 56 59 61 62 61 61 60 57 55 54 51 50 48 46 44 43 42 41 41 42 41 38 37 39 40 40 39 46 56 59 55 53 53 51 53 58 60 59 59 60 59 57 54 52 52
26 30 28 38 60 66 54 49 51 48 44 44 46 45 40 41 41 37 36 37 31 24 23 22 22 24 23 25 30 33 31 34 41 45 47 47 47 46 48 51 56 58 58 57 59 65 69 68 65 62 59 57 57 53 51 50 50 49 48 46 45 44 44 44 43 44 47 45 44 48 52 56 57 55 53 54 54 55 59 62 59 58 59 58 55 52 51 51
26 29 30 43 70 81 73 68 64 60 58 52 46 43 39 37 42 45 42 41 36 29 28 27 26 27 26 26 30 34 34 37 42 46 47 48 48 49 49 50 52 56 58 59 61 65 71 74 72 68 64 62 62 58 54 52 51 51 50 48 48 47 46 48 47 47 49 48 49 54 57 56 55 54 54 56 57 57 60 61 61 60 60 57 54 52 51 52
24 26 30 43 66 80 79 76 69 67 74 71 52 43 43 42 45 48 46 44 40 33 31 31 28 27 27 27 30 34 36 39 44 47 50 51 51 51 51 51 52 55 57 61 63 63 66 72 73 70 67 66 67 64 61 58 54 54 54 52 50 49 48 50 50 49 49 50 52 53 56 57 56 57 57 59 61 62 64 65 65 63 59 56 54 53 52 52
24 25 29 39 61 77 75 72 77 79 84 82 62 47 46 48 51 52 49 47 44 36 33 34 33 31 30 31 32 34 37 40 43 47 51 52 52 52 53 53 56 61 63 65 67 66 68 73 74 73 74 74 73 70 67 63 58 57 58 57 55 54 53 53 53 53 52 52 51 51 53 57 59 59 62 66 67 67 69 70 69 66 61 58 55 53 53 52
22 25 29 36 55 71 73 76 88 92 89 83 68 53 51 54 56 57 53 48 45 43 38 37 39 38 36 38 39 38 39 41 42 44 46 49 50 50 52 51 54 60 63 64 67 67 69 73 75 76 78 77 75 74 72 69 66 63 62 62 62 63 63 61 59 58 56 54 52 53 56 58 60 60 63 68 71 71 73 73 71 68 64 61 57 55 54 53
22 23 27 33 45 60 71 81 89 92 93 88 72 56 54 60 62 60 57 50 45 47 44 40 46 48 46 46 47 45 44 44 44 44 45 46 46 46 48 49 51 57 60 63 66 67 68 71 73 74 73 72 71 71 71 73 74 70 66 68 69 67 66 65 63 63 62 58 56 57 58 58 59 61 64 67 71 74 76 75 73 71 68 64 62 59 57 56